IQ5KG Weather Reports


time (UTC)temp
C
wind
direction
speed
KPH
gust
KPH
rain 1hr
cm
rain 24hr
cm
rain mn
cm
humidity
%
barometer
mb
20260508001753 12 156 16.1 29.0 0.00 0.00 0.00 75 1013.5
20260508000254 12 156 19.3 29.0 0.00 0.00 0.00 79 1013.6
20260507234754 12 156 20.9 38.6 0.00 0.00 0.00 77 1013.8
20260507233256 12 156 19.3 33.8 0.00 0.00 0.00 76 1013.6
20260507231757 12 156 12.9 24.1 0.00 0.00 0.00 77 1014.1
20260507230257 13 156 16.1 29.0 0.00 0.00 0.00 76 1013.8
20260507224758 13 156 14.5 24.1 0.00 0.00 0.00 75 1013.9
20260507223300 13 156 16.1 29.0 0.00 0.00 0.00 73 1014.0
20260507221801 13 156 11.3 20.9 0.00 0.00 0.00 73 1014.1
20260507220300 13 156 16.1 29.0 0.00 0.00 0.00 70 1013.8
20260507214801 15 156 4.8 14.5 0.00 0.00 0.00 67 1013.8
20260507213302 14 156 8.0 14.5 0.00 0.00 0.00 67 1013.9
20260507211804 15 156 4.8 9.7 0.00 0.00 0.00 71 1013.6
20260507210303 15 156 9.7 20.9 0.00 0.00 0.00 71 1013.7
20260507204805 15 156 1.6 4.8 0.00 0.00 0.00 67 1013.9
20260507203305 15 155 12.9 24.1 0.00 0.00 0.00 62 1014.0
20260507201805 15 155 9.7 20.9 0.00 0.00 0.00 64 1013.6
20260507200305 15 156 8.0 14.5 0.00 0.00 0.00 70 1013.8
20260507194806 15 155 12.9 24.1 0.00 0.00 0.00 74 1014.0
20260507193307 15 156 14.5 29.0 0.00 0.00 0.00 75 1013.9
20260507191809 15 158 9.7 24.1 0.00 0.00 0.00 75 1013.9
20260507190246 15 239 8.0 9.7 0.00 0.00 0.00 74 1013.5
20260507184747 15 255 4.8 9.7 0.00 0.00 0.00 72 1013.6
20260507183246 16 251 4.8 14.5 0.00 0.00 0.00 70 1013.8
20260507181746 16 263 4.8 14.5 0.00 0.00 0.00 68 1013.6
20260507180247 17 252 9.7 24.1 0.00 0.00 0.00 65 1013.5
20260507174745 17 246 9.7 20.9 0.00 0.00 0.00 61 1013.6
20260507173245 18 278 9.7 20.9 0.00 0.00 0.00 59 1013.3
20260507171747 18 254 8.0 24.1 0.00 0.00 0.00 57 1013.4
20260507170246 18 238 4.8 20.9 0.00 0.00 0.00 56 1013.3
20260507164746 19 268 3.2 14.5 0.00 0.00 0.00 54 1013.5
20260507163245 20 248 9.7 29.0 0.00 0.00 0.00 53 1013.3
20260507161745 20 282 11.3 24.1 0.00 0.00 0.00 54 1013.3
20260507160244 20 242 11.3 20.9 0.00 0.00 0.00 55 1013.3
20260507154745 20 298 9.7 24.1 0.00 0.00 0.00 56 1013.3
20260507153244 20 238 11.3 20.9 0.00 0.00 0.00 56 1013.3
20260507151743 20 302 14.5 33.8 0.00 0.00 0.00 56 1013.3
20260507150244 21 266 19.3 45.1 0.00 0.00 0.00 54 1013.3
20260507144743 20 262 12.9 29.0 0.00 0.03 0.00 54 1013.4
20260507143243 20 254 16.1 38.6 0.00 0.03 0.00 54 1013.5
20260507141743 20 249 24.1 45.1 0.00 0.03 0.00 54 1013.7
20260507140243 20 245 16.1 48.3 0.00 0.15 0.00 54 1013.6
20260507134743 20 266 19.3 45.1 0.00 0.15 0.00 51 1013.6
20260507133243 21 257 20.9 45.1 0.00 0.15 0.00 52 1013.8
20260507131742 21 277 12.9 38.6 0.00 0.15 0.00 52 1013.9
20260507130242 21 234 8.0 29.0 0.00 0.15 0.00 54 1013.9
20260507124743 21 259 14.5 24.1 0.00 0.15 0.00 49 1013.8
20260507123241 21 234 3.2 9.7 0.00 0.15 0.00 53 1013.9
20260507121741 21 261 16.1 33.8 0.00 0.15 0.00 53 1014.1
20260507120241 21 248 8.0 24.1 0.00 0.15 0.00 52 1014.1
20260507114741 20 267 11.3 24.1 0.00 0.15 0.00 53 1014.2
20260507113240 20 275 12.9 45.1 0.00 0.15 0.00 54 1014.3
20260507111740 20 254 9.7 24.1 0.00 0.15 0.00 60 1014.5
20260507110240 20 269 11.3 33.8 0.00 0.20 0.00 62 1014.3
20260507104739 20 305 16.1 57.9 0.00 0.20 0.00 62 1014.6
20260507103239 19 258 12.9 24.1 0.00 0.20 0.00 64 1014.5
20260507101738 19 246 9.7 20.9 0.00 0.20 0.00 66 1014.8
20260507100238 18 254 8.0 14.5 0.00 0.20 0.00 67 1014.9
20260507094739 18 245 4.8 14.5 0.00 0.20 0.00 69 1014.8
20260507093239 17 240 3.2 9.7 0.00 0.20 0.00 73 1014.8
20260507091739 17 27 9.7 20.9 0.00 0.20 0.00 73 1015.1
20260507090237 17 314 12.9 24.1 0.00 0.20 0.00 74 1015.1
20260507084737 16 313 4.8 14.5 0.00 0.20 0.00 76 1015.4
20260507083238 16 227 8.0 20.9 0.00 0.20 0.00 80 1015.3
20260507081738 15 219 0.0 4.8 0.00 0.20 0.00 84 1015.1
20260507080237 15 20 1.6 9.7 0.00 0.20 0.00 85 1015.2
20260507074739 15 138 4.8 20.9 0.00 0.20 0.00 85 1015.1
20260507073238 15 170 0.0 4.8 0.00 0.20 0.00 85 1015.1
20260507071737 14 175 11.3 20.9 0.00 0.20 0.00 84 1014.7
20260507070237 14 130 1.6 4.8 0.00 0.20 0.00 85 1014.9
20260507064738 15 71 1.6 9.7 0.00 0.20 0.00 86 1014.8
20260507063237 13 72 4.8 9.7 0.00 0.20 0.00 90 1014.7
20260507061738 12 92 3.2 9.7 0.00 0.23 0.00 92 1014.5
20260507060237 12 83 4.8 14.5 0.00 0.23 0.00 94 1014.4
20260507054738 11 49 14.5 24.1 0.00 0.33 0.00 96 1014.0
20260507053238 11 60 9.7 14.5 0.00 0.48 0.00 95 1014.1
20260507051738 10 59 16.1 24.1 0.00 0.71 0.00 96 1014.1
20260507050237 10 52 9.7 20.9 0.00 0.94 0.00 96 1014.0
20260507044737 10 54 9.7 14.5 0.00 2.11 0.00 97 1013.7
20260507043237 11 155 3.2 9.7 0.00 3.10 0.00 97 1013.7
20260507041736 11 157 0.0 0.0 0.00 3.76 0.00 97 1013.5
20260507040237 11 157 1.6 4.8 0.00 3.99 0.00 97 1013.6
20260507034736 11 157 3.2 9.7 0.00 3.99 0.00 96 1013.5
20260507033236 11 157 1.6 4.8 0.00 4.19 0.00 96 1013.4
20260507031736 11 157 0.0 0.0 0.00 4.50 0.00 96 1013.4
20260507030235 11 157 3.2 9.7 0.00 5.16 0.00 97 1013.5
20260507024736 11 156 3.2 9.7 0.00 6.15 0.00 97 1013.4
20260507023237 11 156 9.7 14.5 0.00 6.73 0.00 97 1013.7
20260507021737 11 156 3.2 9.7 0.00 6.96 0.00 97 1013.6
20260507020236 11 156 8.0 14.5 0.00 6.99 0.00 97 1013.6
20260507014736 11 156 11.3 20.9 0.00 6.99 0.00 98 1013.6
20260507013235 11 156 12.9 20.9 0.00 7.09 0.00 97 1013.5
20260507011735 11 156 12.9 20.9 0.00 7.11 0.00 97 1013.6
20260507010236 11 156 16.1 24.1 0.00 7.65 0.00 97 1013.5
20260507004735 11 156 12.9 24.1 0.00 7.92 0.00 98 1013.6
20260507003236 11 156 14.5 24.1 0.00 8.05 0.00 97 1013.4